#timestamp,LO_Frequency,Hit,StdDev 
1522220415.7,286046998.2,N
1522220435.5,286046998.4,N
1522220455.4,286046998.4,N
1522220475.2,286047000.6,N
1522220495.1,286047000.5,N
1522220496.0,286047000.5,N
1522220515.8,286046998.3,N
1522220535.6,286046998.2,N
1522220555.5,286047001.2,N
1522220575.3,286047011.9,Y
1522220595.2,286047000.5,P
1522220615.9,286047000.6,N
1522220635.7,286047001.0,N
1522220655.6,286047000.8,N
1522220675.4,286047001.2,N
1522220695.2,286047002.8,Y
1522220715.1,286047000.6,P
1522220716.0,286047000.6,P
1522220735.8,286047000.0,N
1522220755.7,286047001.2,Y
1522220775.5,286046999.6,P
1522220795.3,286046997.2,P
1522220815.2,286046999.6,N
1522220835.0,286046999.0,N
1522220835.9,286046999.0,N
1522220855.8,286046996.6,Y
1522220875.6,286047002.8,P
1522220895.4,286047000.5,N
1522220915.3,286047000.3,N
1522220935.1,286047002.3,N
1522220955.8,286047003.8,N
1522220975.7,286047001.6,N
1522220995.5,286047002.5,N
1522221015.4,286047000.8,N
1522221035.2,286046998.8,N
1522221055.0,286046998.7,N
1522221055.9,286046998.7,N
1522221075.8,286046999.7,N
1522221095.6,286046999.8,N
1522221115.4,286046999.7,N
1522221135.3,286047000.7,N
1522221155.1,286046998.1,N
1522221175.9,286047001.0,N
1522221195.7,286047000.8,N
1522221215.5,286046999.0,N
1522221235.4,286047000.7,N
1522221255.2,286047000.1,N
1522221275.0,286047001.1,N
1522221275.9,286047001.1,N
1522221295.8,286047001.2,N
1522221315.6,286046998.2,N
1522221335.5,286047000.3,N
1522221355.3,286047000.9,N
1522221375.1,286047000.9,N
1522221395.9,286046998.6,N
1522221415.7,286046998.4,N
1522221435.6,286046998.3,N
1522221455.4,286046998.6,N
1522221475.2,286047001.0,N
1522221495.1,286046998.2,N
1522221496.0,286046998.2,N
1522221515.8,286046998.9,N
1522221535.7,286046998.1,N
1522221555.5,286047000.5,N
1522221575.3,286047000.3,N
1522221595.2,286046998.3,N
1522221615.0,286046998.4,N
1522221615.9,286046998.4,N
1522221635.8,286046999.1,N
1522221655.6,286047001.0,N
1522221675.4,286047002.3,N
1522221695.3,286047000.5,N
1522221715.1,286047001.1,N
1522221735.9,286047001.0,N
1522221755.7,286047000.7,N
1522221775.5,286047001.8,N
1522221795.4,286047003.8,N
1522221815.2,286047002.0,N
1522221835.0,286047001.5,N
1522221836.0,286047001.5,N
1522221855.8,286047001.7,N
1522221875.6,286047003.6,N
1522221895.5,286047001.6,N
1522221915.3,286047002.5,N
1522221935.1,286047000.8,N
1522221955.9,286046999.3,N
1522221975.7,286046999.2,N
1522221995.6,286046997.4,N
1522222015.4,286046995.2,N
1522222035.2,286046995.1,N
1522222055.1,286046994.9,N
1522222056.0,286046994.9,N
1522222075.8,286046995.4,N
1522222095.7,286046995.0,N
1522222115.5,286046995.3,N
1522222135.3,286046993.8,N
1522222155.2,286046995.2,N
1522222175.0,286046995.5,N
1522222175.9,286046995.5,N
1522222195.8,286046998.0,N
1522222215.6,286046995.3,N
1522222235.4,286046996.2,N
1522222255.3,286046996.4,N
1522222275.1,286046993.4,N
1522222295.8,286046994.5,N
1522222315.7,286046994.7,N
1522222335.5,286046992.6,N
1522222355.4,286046992.8,N
1522222375.2,286046990.5,Y
1522222395.0,286046995.7,P
1522222395.9,286046995.7,P
1522222415.8,286046997.9,P
1522222435.6,286046997.5,N
1522222455.5,286046993.4,Y
1522222475.3,286046997.4,P
1522222495.1,286046994.9,P
1522222515.9,286046993.4,P
1522222535.7,286046993.6,Y
1522222555.5,286046999.0,P
1522222575.4,286046998.5,N
1522222595.2,286046999.7,N
1522222615.1,286047001.5,N
1522222616.0,286047001.5,N
1522222635.8,286047002.1,N
1522222655.6,286047000.5,N
1522222675.5,286047002.5,N
1522222695.3,286047001.7,N
1522222715.1,286047002.3,N
1522222735.9,286047002.5,N
1522222755.7,286047000.9,N
1522222775.6,286046999.2,N
1522222795.4,286046998.3,N
1522222815.2,286046999.2,N
1522222835.1,286046996.5,N
1522222836.0,286046996.5,N
1522222855.8,286046997.0,N
1522222875.7,286046996.5,N
1522222895.5,286046997.3,N
1522222915.3,286046997.7,N
1522222935.2,286046997.8,N
1522222955.9,286046997.8,N
1522222975.7,286046996.8,N
1522222995.6,286046996.5,N
1522223015.4,286046997.1,N
1522223035.2,286046997.7,N
1522223055.1,286046997.3,N
1522223056.0,286046997.3,N
1522223075.8,286046997.8,N
1522223095.7,286046997.9,N
1522223115.5,286046997.8,N
1522223135.3,286046996.8,N
1522223155.2,286047001.2,N
1522223175.0,286047000.0,N
1522223175.9,286047000.0,N
1522223195.8,286046998.6,N
1522223215.6,286046998.7,N
1522223235.4,286046999.4,N
1522223255.3,286046997.0,N
1522223275.1,286046996.8,N
1522223295.8,286046997.2,N
1522223315.7,286046996.7,N
1522223335.5,286046995.3,Y
1522223355.4,286046997.6,P
1522223375.2,286046995.8,P
1522223395.0,286046995.8,P
1522223395.9,286046995.8,Y
1522223415.8,286047002.7,P
1522223435.6,286047002.3,N
1522223455.4,286047002.5,N
1522223475.3,286047001.9,N
1522223495.1,286047002.2,N
1522223515.9,286047001.5,N
1522223535.7,286047001.9,N
1522223555.5,286047001.5,N
1522223575.4,286047003.7,N
1522223595.2,286047004.4,N
1522223615.0,286047001.3,N
1522223615.9,286047001.3,N
1522223635.8,286047001.3,N
1522223655.6,286047005.9,Y
1522223675.5,286047003.7,P
1522223695.3,286047004.2,P
1522223715.1,286047005.5,P
1522223735.9,286047005.6,Y
1522223755.7,286046999.9,P
1522223775.6,286046999.9,N
1522223795.4,286047001.1,N
1522223815.2,286047001.1,N
1522223835.1,286046998.5,N
1522223836.0,286046998.5,N
1522223855.8,286046998.6,N
1522223875.7,286046999.1,N
1522223895.5,286046998.3,N
1522223915.3,286046999.1,N
1522223935.2,286046996.6,N
1522223955.0,286046998.4,N
1522223955.9,286046998.4,N
1522223975.8,286046998.3,N
1522223995.6,286047001.1,N
